Flag for Poland Weather past 2 weeks in Elbląg, Poland

Now
58 °F

Sunny.


Feels Like: 58 °F
Forecast: 42 / 65 °F
Wind: 5 mph from Northeast

Location: Hel

Current Time: May 22, 2015 at 4:50:01 PM

Latest Report: May 22, 2015 at 4:00 PM


Visibility: 13 mi

Pressure: 30.25 "Hg

Humidity: 57%

Dew point: 43 °F

Location of ElblągLocation

Historic Weather in Elbląg — Graph

°F

Elbląg temperature yesterday

Maximum temperature yesterday: 58 °F (at 1:00 PM)
Minimum temperature yesterday: 46 °F (at 3:00 AM)
Average temperature yesterday: 52 °F

Past Weeks' High & Low Weather Summary

 TemperatureHumidityPressure
High70 °F (May 19, 1:00 PM)97% (May 21, 4:00 AM)30.38 "Hg (May 21, 4:00 AM)
Low39 °F (May 9, 1:00 AM)37% (May 15, 5:00 PM)29.61 "Hg (May 19, 1:00 PM)
Average52 °F75%30.00 "Hg
* Reported May 7 3:00 PM — May 22 3:00 PM, Elbląg, Weather by CustomWeather, © 2015

Note: Actual official high and low records may vary slightly from our data, if they occured in-between our weather recording intervals... More about our weather records

Advertising

Elbląg weather history for previous 24 hours

 ConditionsComfort  
Time TempWeatherWind HumidityBarometerVisibility
3:00 PM
Fri, May 22
59 °FPassing clouds.5 mph60%30.26 "Hg12 mi
2:00 PM58 °FPassing clouds.5 mph58%30.27 "Hg12 mi
1:00 PM58 °FPassing clouds.3 mph61%30.28 "Hg12 mi
12:00 PM58 °FScattered clouds.5 mph63%30.29 "Hg12 mi
11:00 AM58 °FPassing clouds.3 mph64%30.29 "Hg12 mi
10:00 AM58 °FSunny.2 mph58%30.29 "Hg12 mi
9:00 AM54 °FSunny.2 mph63%30.29 "Hg12 mi
8:00 AM51 °FSunny.2 mph76%30.28 "Hg12 mi
7:00 AM47 °FSunny.2 mph96%30.28 "Hg12 mi
6:00 AM45 °FFog.2 mph97%30.28 "Hg4 mi
5:00 AM43 °FFog.102 mph96%30.27 "Hg2 mi
4:00 AM45 °FFog.2 mph95%30.27 "Hg2 mi
3:00 AM46 °FFog.2 mph94%30.27 "Hg3 mi
2:00 AM47 °FPassing clouds.2 mph95%30.26 "Hg6 mi
1:00 AM48 °FPassing clouds.2 mph92%30.26 "Hg9 mi
12:00 AM48 °FPassing clouds.2 mph91%30.26 "Hg12 mi
10:00 PM
Thu, May 21
49 °FOvercast.1 mph88%30.26 "Hg12 mi
9:00 PM50 °FPassing clouds.1 mph83%30.24 "Hg12 mi
8:00 PM53 °FPartly sunny.2 mph73%30.23 "Hg12 mi
7:00 PM54 °FPartly sunny.2 mph73%30.23 "Hg12 mi
6:00 PM55 °FPartly sunny.3 mph77%30.22 "Hg12 mi
5:00 PM55 °FPartly sunny.5 mph73%30.20 "Hg12 mi
4:00 PM58 °FPartly sunny.5 mph69%30.20 "Hg12 mi
Weather by CustomWeather, © 2015

See weather overviewHow to use our weather pages